1st Responders/1st Detectors/Storm Spotters Weather Summary for Hopkins County, KY

Forecast Maps


Reg. NEXRAD Animation


National Fire Danger: Day 1 & 2 Map

Current NWS Watch/Warnings

SPC Convective Day 1 Outlook


Day 2 Outlook

(Click images to enlarge|Page will refresh every 5 minutes)
UK Ag. Weather Center Desktop Severe Weather Service[HERE]
Hopkins County, KY Hazardous Weather Outlook Webcast
(9 AM to 9 PM Mon-Fri)
[Fast]
[Dial-up]


UKAWC 1st Detectors/1st Responders Precision Weather Forecast For HOPKINS County, Kentucky
(based on the NWS County Digital Forecast)

ISSUED AT 23:00 UTC ON SUNDAY NOV 18 2018
DAY SUNDAY MONDAY
CDT 3HR 7P 8P 9P 10P 11P MIDN 1A 2A 3A 4A 5A 6A 7A 8A 9A 10A 11A NOON 1P 2P 3P 4P 5P 6P
MAX/MIN 50° -- -- -- -- -- -- -- -- -- -- -- 40° -- -- -- -- -- -- -- -- -- -- 45°
TEMP 45° 43° 41° 40° 40° 40° 40° 40° 40° 40° 40° 40° 40° 40° 43° 43° 45° 45° 45° 45° 45° 45° 45° 43°
SKY COVER 94% 96% 97% 99% 98% 97% 96% 97% 97% 98% 99% 99% 100% 100% 100% 100% 100% 100% 100% 98% 96% 95% 93% 91%
Clouds
DEW PT 41° 41° 40° 40° 40° 40° 40° 40° 40° 40° 40° 40° 40° 40° 40° 40° 40° 40° 40° 40° 40° 40° 40° 38°
RH 88% 96% 96% 99% 99% 99% 99% 99% 99% 99% 100% 100% 100% 96% 92% 89% 85% 82% 79% 79% 79% 79% 82% 82%
POP 12HR 8% -- -- -- -- -- -- -- -- -- -- -- 54% -- -- -- -- -- -- -- -- -- -- --
RAIN/SNOW (liq.equ) 0.00in -- -- -- -- -- 0.00in -- -- -- -- -- 0.06in -- -- -- -- -- 0.00in -- -- -- -- --
SNOWFALL 0in -- -- -- -- -- 0in -- -- -- -- -- 0in -- -- -- -- -- 0in -- -- -- -- --
WIND SPEED(MPH) 5 5 5 5 5 2 2 2 2 2 2 2 2 2 5 5 5 6 6 6 6 6 6 6
WIND Gust(MPH) 7 7 7 7 6 6 5 5 5 5 5 5 5 6 6 7 7 7 7 7 7 7 7 7
WIND DIR N N N N N N NE NE NE NE NE N N N N N N NW NW NW NW W W W
DEW -- -- -- -- -- -- -- -- -- -- -- -- -- -- -- -- -- -- -- -- -- -- -- --
HeatIndex 42 40 39 38 38 37 37 37 37 37 37 37 37 38 40 41 42 41 45 45 45 45 41 40
Rain Slight Chance Slight Chance Slight Chance Chance Chance Chance Chance Chance Chance Chance Chance Chance Chance Chance Chance Chance Chance Chance -- -- -- -- -- --
Rain Showers -- -- -- -- -- -- -- -- -- -- -- -- -- -- -- -- -- -- -- -- -- -- -- --
Drizzle Slight Chance Slight Chance Slight Chance Chance Chance Chance Chance Chance Chance Chance Chance Chance Chance Chance Chance Chance Chance Chance -- -- -- -- -- --
WIND CHILL 43° 40° 38° 37° 37° -- -- -- -- -- -- -- -- -- 40° 40° 43° 42° 42° 42° 42° 42° 42° 39°
SPRAY COND
DRY COND
LIVESTOCK COLDSTRESS



DAY TUESDAY WEDNESDAY THURSDAY FRIDAY SATURDAY SUNDAY
CDT 6HR 7P 8P 9P 10P 11P MIDN 1A 2A 3A 4A 5A 6A 7A 10A 1P 4P 7P 10P 1A 4A 7A 10A 1P 4P 7P 1A 7A 1P 7P 1A 7A 1P 7P 1A 7A 1P 7P 1A 7A 1P 7P
MAX/MIN -- -- -- -- -- -- -- -- -- -- -- -- 32° -- -- 41° -- -- -- -- 25° -- -- 49° -- -- 31° 54° -- -- 36° 54° -- -- 43° 54° -- -- 43° 52° --
TEMP 43° 43° 41° 41° 40° 40° 38° 36° 34° 34° 34° 32° 32° 34° 40° 40° 36° 31° 29° 27° 27° 36° 45° 47° 40° 36° 32° 52° 45° 38° 38° 54° 47° 47° 43° 54° 50° 47° 43° 52° 47°
SKY COVER 89% 89% 86% 85% 77% 62% 55% 54% 53% 52% 54% 56% 57% 59% 49% 35% 30% 6% 15% 6% 6% 3% 3% 3% 1% 2% 2% 3% 2% 4% 15% 74% 95% 87% 82% 76% 70% 64% 75% 82% 90%
Clouds
DEW PT 40° 40° 40° 38° 38° 36° 36° 34° 34° 34° 32° 31° 31° 32° 29° 29° 29° 27° 27° 25° 25° 27° 29° 32° 32° 31° 31° 36° 36° 34° 34° 38° 41° 43° 43° 47° 45° 45° 43° 45° 41°
RH 88% 88% 92% 88% 88% 88% 92% 92% 99% 99% 96% 96% 95% 92% 64% 62% 72% 85% 91% 88% 95% 72% 53% 56% 72% 84% 91% 52% 72% 88% 85% 56% 79% 85% 99% 76% 82% 92% 96% 74% 82%
POP 12HR 34% -- -- -- -- -- -- -- -- -- -- -- 5% -- -- -- 3% -- -- -- 1% -- -- -- 1% -- 1% -- 1% -- 2% -- 38% -- 60% -- 44% -- 20% -- 32%
RAIN/SNOW (liq.equ) 0.00in -- -- -- -- -- 0.00in -- -- -- -- -- 0.00in -- 0.00in -- 0.00in -- 0.00in -- 0.00in -- 0.00in -- 0.00in -- -- -- -- -- -- -- -- -- -- -- -- -- -- -- --
SNOWFALL 0in -- -- -- -- -- 0in -- -- -- -- -- 0in -- 0in -- 0in -- 0in -- 0in -- 0in -- 0in -- -- -- -- -- -- -- -- -- -- -- -- -- -- -- --
WIND SPEED(MPH) 6 6 6 6 6 5 5 5 6 6 6 6 6 7 7 7 5 2 1 2 2 6 7 6 5 2 2 6 6 7 7 13 13 8 7 7 6 6 6 7 8
WIND DIR W W W W W W W W W W W NW NW NW NW NW NW NW W W SW SW SW SW SW W E E E SE S S S S S S S S S S W
HeatIndex 39 39 38 38 37 36 34 33 29 28 28 27 27 28 35 36 33 27 29 24 23 31 45 47 38 33 29 52 41 32 33 54 47 47 38 54 50 47 40 52 47
Rain -- -- -- -- -- -- -- -- -- -- -- -- -- -- -- -- -- -- -- -- -- -- -- -- -- -- -- -- -- -- -- -- -- -- -- -- -- -- -- -- --
Rain Showers -- -- -- -- -- -- -- -- -- -- -- -- -- -- -- -- -- -- -- -- -- -- -- -- -- -- -- -- -- -- -- Chance Likely Likely Chance Chance Slight Chance -- Slight Chance Chance Chance
Drizzle -- -- -- -- -- -- -- -- -- -- -- -- -- -- -- -- -- -- -- -- -- -- -- -- -- -- -- -- -- -- -- -- -- -- -- -- -- -- -- -- --
WIND CHILL 39° 39° 37° 37° 36° 37° 35° 32° 29° 29° 29° 27° 27° 28° 35° 35° 32° -- -- -- -- 31° 41° -- 37° -- -- -- 42° 33° 33° -- -- -- 39° -- -- -- 39° -- --
SPRAY COND
DRY COND
LIVESTOCK COLDSTRESS

Click on individual weather variable above in left-hand column (ie., TEMP, RH, QPF 12HR) to view state forecast maps






NWS 48 Hr. Forecast Maps,

Regional Hourly Observations For HOPKINS County, Kentucky
Issued at 600 PM EST SUN NOV 18 2018
WESTERN AND SOUTH CENTRAL KENTUCKY
  
CITY           SKY/WX    TMP DP  RH WIND       PRES   REMARKS
PADUCAH        CLOUDY    45  38  76 NE6       30.17F HAZE             
HENDERSON      CLOUDY    47  41  80 NW3       30.18S                  
OWENSBORO      FAIR      45  40  82 NW5       30.17R HAZE             
HOPKINSVILLE   FAIR      53  44  72 NW6       30.14R                  
BOWLING GREEN  FAIR      56  43  61 CALM      30.13S                  
GLASGOW        CLOUDY    55  42  62 CALM      30.13S                  


Current NOWCAST not available:
Nowcasts are not issued routinely during fair weather. Only when
precipitation or other significant weather is occuring in this county will these
forecasts be issued. Currently, there is no short term forecast in effect.


Fire Weather Forecast For HOPKINS County, KY
Provided by the National Weather Service:

Issued at: Sun Nov 18 18:05:01 EST 2018

Precip Type           Rain         Rain         None         None         
Chance Precip (%)     70           50           10           0            
High Temperature(F)                43-47                     39-43        
Minimum RH(%)                      76-81                     57-62        
Low Temperature(F)    37-41                     30-34                     
Maximum RH(%)         95-100                    95-100                    
Temp (24h Trend)      38 (0)       47 (-8)      32           42           
RH % (24h Trend)      100 (+5)     79 (+12)     100          60           
20FTWND-AM(MPH)                    Lgt/Var                   NW 5-9       
20FTWND-PM(MPH)       Lgt/Var      NW 4-8       W 3-7        NW 5-9       
Precip Amount         0.05         0.01         0.00         0.00         
Precip Duration       2            1            0                         
Precip Begin          6 PM         Continuing                             
Precip End            Continuing   12 PM                                  
1700'Mix Hgt Temp                  49                        35           
Mixing Hgt(FT-AGL)                 2446                      3549         
Transport Wind (KTS)               W  8                      NW 11        
Transport Wind (M/S)               W  4                      NW  6        
Vent Rate (M/S-M)                  2984                      6492         
Dispersion Index                   Poor to Fair              Fair         
LAL                   1            1            1            1            
Haines Index          2            2            2            3            
Stability(DSI)        STBL         STBL         STBL         STBL         

Remarks...None.

.Forecast for days 3 through 7...

.TUESDAY NIGHT...Mostly clear. Lows in the mid 20s. West winds
around 5 mph. 
.WEDNESDAY...Sunny. Highs in the upper 40s. Southwest winds 5 to
10 mph. 
.WEDNESDAY NIGHT...Clear. Lows in the lower 30s. Southwest winds
around 5 mph. 
.THANKSGIVING DAY...Sunny. Highs in the mid 50s. East winds
around 5 mph. 
.THURSDAY NIGHT...Clear. Lows in the upper 30s. Southeast winds
5 to 10 mph. 
.FRIDAY...Partly sunny with a 50 percent chance of rain showers.
Highs in the mid 50s. South winds 5 to 15 mph with gusts to
around 30 mph. 
.FRIDAY NIGHT...Rain showers likely. Lows in the lower 40s. South
winds 5 to 15 mph. 
.SATURDAY...Mostly cloudy with a 50 percent chance of rain
showers. Highs in the mid 50s. South winds 5 to 10 mph. 
.SATURDAY NIGHT...Mostly cloudy with a 20 percent chance of rain
showers. Lows in the lower 40s. South winds around 5 mph. 
.SUNDAY...Mostly cloudy with a 30 percent chance of rain showers.
Highs in the mid 50s. Southwest winds 5 to 10 mph. 

SPC's Fire Weather Web Tool (Excellent!), SPC's Fire Weather Outlooks, NWS Fire Weather WEB, Fire Danger Class Map,
Keetch-Byram Drought Index, ROMAN Web, Haines Index ,
WFAS's 10-hr Dead Fuel Moist., WFAS's 100-hr Dead Fuel Moist., Probablity of Ignition, Visual blackness Map, Palmer Drought Index, HPC's Rainfall Forecast Maps


Hazardous Weather Outlook For HOPKINS County, Kentucky
259 PM CST Sun Nov 18 2018

 DAY ONE  Tonight

No hazardous weather is expected at this time.

 DAYS TWO THROUGH SEVEN  Monday through Saturday

No hazardous weather is expected at this time.

 SPOTTER INFORMATION STATEMENT  

Spotter activation will not be needed.

Latest HOPKINS County, Kentucky Watches, Warnings and Advisories.
Additional Drought Info.: UKAWC Drought Page, Kentucky Drought Watch


7-Day Forecast For HOPKINS County, KY

TONIGHT
Cloudy with a 50 percent chance of light rain and drizzle. Lows around 40. North winds around 5 mph.

MONDAY
Cloudy. A 40 percent chance of light rain and drizzle in the morning. Highs in the mid 40s. Northwest winds around 5 mph.

MONDAY NIGHT
Mostly cloudy in the evening then becoming partly cloudy. Lows in the lower 30s. West winds around 5 mph.

TUESDAY
Partly sunny. Highs in the lower 40s. Northwest winds 5 to 10 mph.

TUESDAY NIGHT
Mostly clear. Lows in the mid 20s. West winds 5 mph.

WEDNESDAY
Sunny. Highs in the upper 40s.

WEDNESDAY NIGHT
Clear. Lows in the lower 30s.

THANKSGIVING DAY
Sunny. Highs in the mid 50s.

THURSDAY NIGHT
Clear. Lows in the upper 30s.

FRIDAY
Partly sunny. A 40 percent chance of rain showers in the afternoon. Highs in the mid 50s.

FRIDAY NIGHT
Showers likely. Lows in the lower 40s. Chance of precipitation 60 percent.

SATURDAY
Mostly cloudy with a 50 percent chance of showers. Highs in the mid 50s.

SATURDAY NIGHT
Mostly cloudy. A 20 percent chance of showers in the evening. Lows in the lower 40s.

SUNDAY
Mostly cloudy with a 30 percent chance of showers. Highs in the lower 50s.

Ag Weather Center, Department of Biosystems & Agricultural Engineering, University of Kentucky